JBU2011 KJFK-KVPS

Flight info

Callsign JBU2011
Flight time 2h 40m
Altitude 32000
Route DCT RBV Q430 COPES Q75 GVE DCT LYH DCT COLZI Q52 CHOPZ DCT MGMRY DCT CEW DCT
Aircraft A320/M-SDE3FGHIRWY/LB1

Departure

Time 2026-05-08 16:12
Airport John F. Kennedy International Airport (KJFK)

Arrival

Time 2026-05-08 18:52
Airport Destin-Fort Walton Beach Airport (KVPS)
Time Latitude Longitude Altitude Speed Heading
2026-05-08 15:41 40.64436 -73.77627 16 ft 0 kts 32°
2026-05-08 15:58 40.64432 -73.77631 17 ft 2 kts 32°
2026-05-08 15:58 40.64415 -73.77644 16 ft 3 kts 32°
2026-05-08 15:58 40.64398 -73.77658 18 ft 3 kts 37°
2026-05-08 15:59 40.64385 -73.77675 18 ft 3 kts 65°
2026-05-08 15:59 40.64381 -73.77697 16 ft 3 kts 109°
2026-05-08 15:59 40.64388 -73.77714 20 ft 1 kts 135°
2026-05-08 15:59 40.64398 -73.77727 17 ft 2 kts 135°
2026-05-08 16:00 40.64403 -73.77734 17 ft 0 kts 135°
2026-05-08 16:02 40.64399 -73.77729 17 ft 3 kts 135°
2026-05-08 16:02 40.64365 -73.77689 18 ft 10 kts 143°
2026-05-08 16:03 40.64297 -73.77638 17 ft 12 kts 152°
2026-05-08 16:03 40.64218 -73.77581 16 ft 14 kts 151°
2026-05-08 16:03 40.64127 -73.77517 16 ft 16 kts 150°
2026-05-08 16:03 40.64053 -73.77410 16 ft 16 kts 127°
2026-05-08 16:04 40.64032 -73.77304 18 ft 9 kts 50°
2026-05-08 16:04 40.64107 -73.77239 17 ft 17 kts 31°
2026-05-08 16:04 40.64227 -73.77145 18 ft 23 kts 30°
2026-05-08 16:04 40.64376 -73.77030 16 ft 26 kts 29°
2026-05-08 16:05 40.64555 -73.76951 17 ft 29 kts 28°
2026-05-08 16:05 40.64724 -73.76820 18 ft 28 kts 31°
2026-05-08 16:05 40.64885 -73.76694 16 ft 26 kts 31°
2026-05-08 16:05 40.65012 -73.76594 16 ft 16 kts 31°
2026-05-08 16:06 40.65070 -73.76550 16 ft 3 kts 31°
2026-05-08 16:06 40.65073 -73.76547 16 ft 0 kts 31°
2026-05-08 16:07 40.65076 -73.76544 16 ft 3 kts 31°
2026-05-08 16:07 40.65103 -73.76511 16 ft 8 kts 63°
2026-05-08 16:07 40.65092 -73.76455 18 ft 4 kts 121°
2026-05-08 16:08 40.65089 -73.76449 17 ft 0 kts 121°
2026-05-08 16:08 40.65072 -73.76412 17 ft 5 kts 122°
2026-05-08 16:08 40.65062 -73.76396 16 ft 0 kts 129°
2026-05-08 16:09 40.65054 -73.76382 16 ft 5 kts 129°
2026-05-08 16:09 40.65013 -73.76363 16 ft 8 kts 189°
2026-05-08 16:09 40.64993 -73.76377 16 ft 0 kts 212°
2026-05-08 16:11 40.64992 -73.76378 16 ft 3 kts 212°
2026-05-08 16:11 40.64809 -73.76531 16 ft 63 kts 212°
2026-05-08 16:11 40.64242 -73.76964 19 ft 124 kts 211°
2026-05-08 16:11 40.63365 -73.77645 313 ft 158 kts 212°
2026-05-08 16:12 40.62364 -73.78387 1024 ft 176 kts 211°
2026-05-08 16:12 40.61268 -73.79119 1911 ft 181 kts 211°
2026-05-08 16:12 40.60131 -73.79872 2679 ft 185 kts 212°
2026-05-08 16:12 40.58954 -73.80674 3491 ft 198 kts 212°
2026-05-08 16:13 40.57687 -73.81532 4258 ft 208 kts 211°
2026-05-08 16:13 40.56385 -73.82408 5037 ft 213 kts 212°
2026-05-08 16:13 40.55030 -73.83305 5841 ft 223 kts 212°
2026-05-08 16:13 40.53612 -73.84223 6726 ft 231 kts 212°
2026-05-08 16:14 40.52146 -73.85149 7618 ft 237 kts 212°
2026-05-08 16:14 40.50635 -73.86082 8538 ft 242 kts 212°
2026-05-08 16:14 40.49082 -73.87020 9427 ft 250 kts 212°
2026-05-08 16:14 40.47473 -73.87976 10263 ft 258 kts 212°
2026-05-08 16:15 40.45805 -73.88955 11078 ft 267 kts 212°
2026-05-08 16:15 40.44138 -73.90037 11902 ft 266 kts 220°
2026-05-08 16:15 40.42634 -73.91440 12750 ft 266 kts 226°
2026-05-08 16:15 40.41165 -73.92936 13631 ft 269 kts 226°
2026-05-08 16:16 40.39759 -73.94535 14440 ft 265 kts 233°
2026-05-08 16:16 40.38515 -73.96314 15228 ft 265 kts 237°
2026-05-08 16:16 40.37300 -73.98170 15827 ft 272 kts 237°
2026-05-08 16:16 40.36067 -74.00097 16426 ft 279 kts 237°
2026-05-08 16:17 40.34823 -74.02060 16992 ft 287 kts 237°
2026-05-08 16:17 40.33953 -74.03445 17359 ft 293 kts 237°
2026-05-08 16:17 40.32213 -74.06235 18083 ft 304 kts 237°
2026-05-08 16:17 40.30870 -74.08413 18589 ft 311 kts 237°
2026-05-08 16:18 40.29501 -74.10645 19078 ft 318 kts 237°
2026-05-08 16:18 40.28106 -74.12926 19562 ft 324 kts 237°
2026-05-08 16:18 40.26690 -74.15249 20048 ft 329 kts 237°
2026-05-08 16:18 40.25252 -74.17615 20553 ft 334 kts 237°
2026-05-08 16:19 40.23800 -74.20010 21073 ft 338 kts 238°
2026-05-08 16:19 40.22329 -74.22436 21591 ft 342 kts 238°
2026-05-08 16:19 40.20844 -74.24883 22163 ft 343 kts 238°
2026-05-08 16:19 40.19394 -74.27369 22740 ft 340 kts 244°
2026-05-08 16:20 40.18620 -74.30186 23395 ft 332 kts 261°
2026-05-08 16:20 40.18346 -74.33186 23835 ft 334 kts 268°
2026-05-08 16:20 40.18324 -74.36242 24232 ft 337 kts 269°
2026-05-08 16:20 40.18257 -74.39313 24629 ft 339 kts 266°
2026-05-08 16:21 40.18069 -74.42405 25039 ft 341 kts 265°
2026-05-08 16:21 40.17880 -74.45503 25448 ft 343 kts 266°
2026-05-08 16:21 40.17743 -74.48624 25862 ft 344 kts 267°
2026-05-08 16:21 40.17610 -74.51751 26288 ft 345 kts 266°
2026-05-08 16:22 40.17450 -74.54887 26720 ft 346 kts 266°
2026-05-08 16:22 40.17286 -74.58025 27156 ft 346 kts 266°
2026-05-08 16:22 40.17132 -74.61160 27590 ft 346 kts 266°
2026-05-08 16:22 40.16980 -74.64294 28039 ft 345 kts 266°
2026-05-08 16:23 40.16822 -74.67421 28492 ft 344 kts 266°
2026-05-08 16:23 40.16663 -74.70541 28927 ft 344 kts 266°
2026-05-08 16:23 40.16505 -74.73658 29334 ft 344 kts 266°
2026-05-08 16:23 40.16348 -74.76771 29761 ft 343 kts 266°
2026-05-08 16:24 40.16188 -74.79882 30169 ft 342 kts 266°
2026-05-08 16:24 40.16028 -74.82979 30528 ft 341 kts 266°
2026-05-08 16:24 40.15868 -74.86067 30884 ft 340 kts 266°
2026-05-08 16:24 40.15708 -74.89142 31273 ft 338 kts 266°
2026-05-08 16:25 40.15547 -74.92204 31648 ft 337 kts 266°
2026-05-08 16:25 40.15387 -74.95247 32015 ft 335 kts 265°
2026-05-08 16:25 40.15059 -75.01443 32014 ft 347 kts 265°
2026-05-08 16:26 40.14718 -75.07800 32020 ft 355 kts 265°
2026-05-08 16:26 40.14368 -75.14294 32014 ft 362 kts 265°
2026-05-08 16:27 40.14007 -75.20884 32018 ft 364 kts 265°
2026-05-08 16:27 40.13646 -75.27427 32011 ft 362 kts 265°
2026-05-08 16:28 40.12985 -75.33931 32018 ft 362 kts 256°
2026-05-08 16:28 40.10964 -75.39993 32028 ft 368 kts 243°
2026-05-08 16:29 40.07643 -75.45202 32024 ft 377 kts 234°
2026-05-08 16:29 40.04049 -75.50189 32002 ft 376 kts 234°
2026-05-08 16:30 40.00460 -75.55148 32000 ft 376 kts 234°
2026-05-08 16:30 39.96875 -75.60095 32006 ft 374 kts 234°
2026-05-08 16:31 39.93293 -75.65035 31999 ft 375 kts 234°
2026-05-08 16:31 39.89906 -75.70130 32009 ft 370 kts 238°
2026-05-08 16:32 39.86669 -75.75305 31986 ft 371 kts 237°
2026-05-08 16:32 39.83418 -75.80498 31992 ft 369 kts 237°
2026-05-08 16:33 39.80175 -75.85678 31985 ft 369 kts 237°
2026-05-08 16:33 39.76932 -75.90840 31996 ft 368 kts 237°
2026-05-08 16:34 39.73691 -75.95997 31997 ft 368 kts 237°
2026-05-08 16:34 39.70454 -76.01133 32016 ft 367 kts 237°
2026-05-08 16:35 39.67219 -76.06261 32018 ft 367 kts 237°
2026-05-08 16:35 39.63983 -76.11381 32022 ft 366 kts 237°
2026-05-08 16:36 39.60772 -76.16456 32020 ft 366 kts 237°
2026-05-08 16:36 39.57508 -76.21523 32027 ft 366 kts 236°
2026-05-08 16:37 39.54213 -76.26569 32021 ft 366 kts 237°
2026-05-08 16:37 39.50936 -76.31616 32022 ft 365 kts 236°
2026-05-08 16:38 39.47660 -76.36636 32020 ft 365 kts 236°
2026-05-08 16:38 39.44212 -76.41424 32048 ft 367 kts 233°
2026-05-08 16:39 39.40631 -76.46128 32043 ft 367 kts 233°
2026-05-08 16:39 39.37627 -76.50055 32054 ft 366 kts 233°
2026-05-08 16:40 39.34067 -76.54702 32042 ft 366 kts 233°
2026-05-08 16:40 39.30498 -76.59359 32042 ft 364 kts 233°
2026-05-08 16:41 39.26928 -76.64008 32009 ft 364 kts 233°
2026-05-08 16:42 39.21581 -76.70958 32020 ft 363 kts 233°
2026-05-08 16:42 39.18043 -76.75546 32014 ft 363 kts 233°
2026-05-08 16:43 39.14490 -76.80150 32049 ft 362 kts 233°
2026-05-08 16:43 39.10934 -76.84748 32044 ft 362 kts 233°
2026-05-08 16:44 39.07383 -76.89334 32029 ft 361 kts 233°
2026-05-08 16:44 39.03828 -76.93919 32021 ft 362 kts 233°
2026-05-08 16:45 39.00277 -76.98488 32031 ft 360 kts 233°
2026-05-08 16:45 38.96739 -77.03047 32024 ft 360 kts 233°
2026-05-08 16:46 38.93203 -77.07596 32028 ft 359 kts 233°
2026-05-08 16:46 38.89687 -77.12112 32022 ft 359 kts 233°
2026-05-08 16:47 38.86154 -77.16642 32028 ft 359 kts 233°
2026-05-08 16:47 38.82627 -77.21160 32016 ft 358 kts 233°
2026-05-08 16:48 38.79100 -77.25669 32023 ft 357 kts 233°
2026-05-08 16:48 38.75602 -77.30136 32016 ft 357 kts 233°
2026-05-08 16:49 38.72036 -77.34572 32026 ft 360 kts 230°
2026-05-08 16:49 38.68310 -77.38864 32047 ft 359 kts 231°
2026-05-08 16:50 38.64609 -77.43152 32055 ft 359 kts 231°
2026-05-08 16:50 38.60902 -77.47425 32053 ft 358 kts 230°
2026-05-08 16:51 38.57200 -77.51692 32059 ft 358 kts 230°
2026-05-08 16:51 38.53490 -77.55961 32045 ft 358 kts 230°
2026-05-08 16:52 38.49784 -77.60219 32047 ft 358 kts 230°
2026-05-08 16:52 38.46082 -77.64466 32048 ft 357 kts 230°
2026-05-08 16:53 38.40558 -77.70794 32055 ft 357 kts 230°
2026-05-08 16:53 38.36858 -77.75023 32056 ft 357 kts 230°
2026-05-08 16:54 38.33163 -77.79243 32053 ft 357 kts 230°
2026-05-08 16:54 38.29462 -77.83460 32056 ft 357 kts 230°
2026-05-08 16:55 38.25759 -77.87677 32049 ft 357 kts 230°
2026-05-08 16:55 38.22054 -77.91886 32052 ft 356 kts 230°
2026-05-08 16:56 38.18378 -77.96061 32045 ft 357 kts 230°
2026-05-08 16:56 38.14665 -78.00270 32050 ft 356 kts 230°
2026-05-08 16:57 38.10955 -78.04468 32038 ft 357 kts 230°
2026-05-08 16:57 38.07250 -78.08656 32039 ft 356 kts 230°
2026-05-08 16:58 38.03568 -78.12812 32039 ft 357 kts 230°
2026-05-08 16:58 38.00060 -78.17185 32055 ft 349 kts 236°
2026-05-08 16:59 37.96853 -78.21839 32055 ft 351 kts 235°
2026-05-08 16:59 37.93639 -78.26488 32051 ft 350 kts 235°
2026-05-08 17:00 37.90429 -78.31131 32061 ft 350 kts 235°
2026-05-08 17:00 37.87243 -78.35726 32073 ft 349 kts 235°
2026-05-08 17:01 37.84029 -78.40361 32068 ft 350 kts 235°
2026-05-08 17:01 37.80815 -78.44984 32062 ft 350 kts 235°
2026-05-08 17:02 37.77606 -78.49599 32061 ft 349 kts 235°
2026-05-08 17:02 37.74397 -78.54202 32066 ft 348 kts 235°
2026-05-08 17:03 37.71194 -78.58791 32072 ft 348 kts 235°
2026-05-08 17:03 37.67993 -78.63376 32078 ft 348 kts 235°
2026-05-08 17:04 37.64786 -78.67955 32075 ft 348 kts 235°
2026-05-08 17:04 37.61592 -78.72516 32084 ft 350 kts 235°
2026-05-08 17:05 37.58367 -78.77110 32474 ft 350 kts 235°
2026-05-08 17:05 37.56754 -78.79404 32789 ft 349 kts 235°
2026-05-08 17:05 37.55144 -78.81697 33094 ft 349 kts 235°
2026-05-08 17:06 37.53535 -78.83984 33406 ft 348 kts 235°
2026-05-08 17:06 37.51930 -78.86261 33716 ft 347 kts 235°
2026-05-08 17:06 37.50329 -78.88534 34050 ft 346 kts 235°
2026-05-08 17:06 37.48735 -78.90797 34330 ft 345 kts 235°
2026-05-08 17:07 37.47144 -78.93051 34608 ft 343 kts 235°
2026-05-08 17:07 37.45581 -78.95264 34887 ft 342 kts 236°
2026-05-08 17:07 37.44004 -78.97497 35122 ft 342 kts 236°
2026-05-08 17:07 37.42419 -78.99744 35089 ft 344 kts 236°
2026-05-08 17:08 37.39234 -79.04240 35089 ft 345 kts 236°
2026-05-08 17:08 37.36033 -79.08760 35095 ft 347 kts 236°
2026-05-08 17:09 37.32818 -79.13289 35084 ft 347 kts 236°
2026-05-08 17:09 37.29595 -79.17824 35090 ft 348 kts 236°
2026-05-08 17:10 37.26367 -79.22360 35085 ft 348 kts 236°
2026-05-08 17:10 37.22979 -79.26762 35085 ft 351 kts 233°
2026-05-08 17:11 37.19558 -79.31088 35083 ft 352 kts 233°
2026-05-08 17:11 37.16102 -79.35442 35085 ft 353 kts 233°
2026-05-08 17:12 37.12638 -79.39802 35089 ft 353 kts 233°
2026-05-08 17:12 37.09167 -79.44163 35091 ft 354 kts 233°
2026-05-08 17:13 37.05692 -79.48525 35088 ft 354 kts 233°
2026-05-08 17:13 37.02206 -79.52894 35091 ft 354 kts 233°
2026-05-08 17:14 36.98718 -79.57260 35088 ft 355 kts 233°
2026-05-08 17:14 36.95222 -79.61630 35095 ft 355 kts 233°
2026-05-08 17:15 36.91722 -79.65998 35089 ft 355 kts 233°
2026-05-08 17:15 36.88218 -79.70367 35091 ft 356 kts 234°
2026-05-08 17:16 36.84724 -79.74714 35095 ft 356 kts 233°
2026-05-08 17:16 36.81211 -79.79082 35104 ft 356 kts 233°
2026-05-08 17:17 36.78155 -79.82877 35100 ft 356 kts 233°
2026-05-08 17:17 36.74637 -79.87237 35105 ft 356 kts 234°
2026-05-08 17:18 36.71121 -79.91591 35108 ft 356 kts 234°
2026-05-08 17:18 36.67598 -79.95947 35113 ft 357 kts 234°
2026-05-08 17:19 36.64089 -80.00282 35111 ft 358 kts 234°
2026-05-08 17:19 36.60525 -80.04679 35111 ft 364 kts 234°
2026-05-08 17:20 36.56900 -80.09141 35108 ft 369 kts 233°
2026-05-08 17:20 36.53235 -80.13646 35108 ft 371 kts 233°
2026-05-08 17:21 36.49565 -80.18152 35102 ft 370 kts 234°
2026-05-08 17:21 36.45900 -80.22648 35095 ft 370 kts 234°
2026-05-08 17:22 36.42228 -80.27142 35093 ft 370 kts 234°
2026-05-08 17:22 36.38556 -80.31632 35102 ft 371 kts 234°
2026-05-08 17:23 36.34884 -80.36117 35105 ft 370 kts 234°
2026-05-08 17:23 36.31209 -80.40597 35101 ft 370 kts 234°
2026-05-08 17:24 36.27533 -80.45075 35110 ft 371 kts 234°
2026-05-08 17:24 36.23874 -80.49522 35103 ft 371 kts 234°
2026-05-08 17:25 36.19817 -80.53643 35098 ft 380 kts 228°
2026-05-08 17:25 36.15630 -80.57629 35094 ft 380 kts 229°
2026-05-08 17:26 36.11420 -80.61590 35081 ft 380 kts 228°
2026-05-08 17:26 36.07211 -80.65562 35075 ft 380 kts 229°
2026-05-08 17:27 36.03029 -80.69497 35082 ft 380 kts 229°
2026-05-08 17:27 35.98818 -80.73456 35084 ft 381 kts 229°
2026-05-08 17:28 35.94594 -80.77422 35097 ft 381 kts 229°
2026-05-08 17:28 35.90364 -80.81387 35097 ft 381 kts 229°
2026-05-08 17:29 35.86851 -80.84676 35106 ft 381 kts 229°
2026-05-08 17:29 35.82617 -80.88635 35109 ft 381 kts 229°
2026-05-08 17:30 35.78395 -80.92578 35113 ft 381 kts 229°
2026-05-08 17:30 35.74172 -80.96516 35113 ft 381 kts 229°
2026-05-08 17:31 35.69942 -81.00456 35108 ft 381 kts 229°
2026-05-08 17:31 35.65709 -81.04391 35108 ft 381 kts 229°
2026-05-08 17:32 35.61504 -81.08299 35105 ft 381 kts 229°
2026-05-08 17:32 35.57269 -81.12224 35107 ft 381 kts 229°
2026-05-08 17:33 35.53034 -81.16148 35102 ft 381 kts 229°
2026-05-08 17:33 35.48791 -81.20073 35101 ft 382 kts 229°
2026-05-08 17:34 35.44550 -81.23992 35104 ft 382 kts 229°
2026-05-08 17:34 35.40304 -81.27906 35099 ft 382 kts 229°
2026-05-08 17:35 35.36083 -81.31795 35094 ft 382 kts 229°
2026-05-08 17:35 35.31830 -81.35709 35096 ft 382 kts 229°
2026-05-08 17:36 35.27570 -81.39622 35099 ft 382 kts 228°
2026-05-08 17:36 35.23314 -81.43528 35102 ft 383 kts 229°
2026-05-08 17:37 35.19052 -81.47432 35097 ft 383 kts 228°
2026-05-08 17:37 35.14811 -81.51313 35099 ft 383 kts 228°
2026-05-08 17:38 35.10543 -81.55214 35100 ft 383 kts 228°
2026-05-08 17:38 35.06277 -81.59111 35096 ft 383 kts 229°
2026-05-08 17:39 35.02641 -81.63610 35109 ft 365 kts 242°
2026-05-08 17:39 34.99806 -81.68712 35106 ft 363 kts 243°
2026-05-08 17:40 34.96967 -81.73800 35107 ft 362 kts 243°
2026-05-08 17:40 34.94152 -81.78890 35109 ft 362 kts 243°
2026-05-08 17:41 34.91324 -81.83968 35104 ft 362 kts 243°
2026-05-08 17:41 34.88496 -81.89054 35109 ft 362 kts 243°
2026-05-08 17:42 34.85664 -81.94132 35103 ft 362 kts 243°
2026-05-08 17:42 34.82848 -81.99177 35103 ft 362 kts 243°
2026-05-08 17:43 34.80018 -82.04237 35097 ft 362 kts 243°
2026-05-08 17:43 34.77184 -82.09300 35109 ft 362 kts 243°
2026-05-08 17:44 34.74347 -82.14360 35104 ft 362 kts 243°
2026-05-08 17:44 34.71510 -82.19412 35109 ft 361 kts 243°
2026-05-08 17:45 34.68674 -82.24456 35108 ft 361 kts 243°
2026-05-08 17:45 34.65839 -82.29491 35111 ft 361 kts 243°
2026-05-08 17:46 34.63017 -82.34497 35105 ft 362 kts 243°
2026-05-08 17:46 34.60172 -82.39533 35110 ft 361 kts 243°
2026-05-08 17:47 34.57323 -82.44572 35100 ft 360 kts 244°
2026-05-08 17:47 34.54973 -82.48724 35097 ft 359 kts 243°
2026-05-08 17:48 34.51655 -82.54576 35099 ft 360 kts 243°
2026-05-08 17:48 34.48811 -82.59584 35100 ft 360 kts 243°
2026-05-08 17:49 34.45977 -82.64569 35101 ft 361 kts 243°
2026-05-08 17:49 34.43119 -82.69588 35102 ft 362 kts 243°
2026-05-08 17:50 34.40252 -82.74615 35104 ft 363 kts 243°
2026-05-08 17:50 34.37382 -82.79642 35096 ft 363 kts 243°
2026-05-08 17:51 34.34506 -82.84670 35099 ft 363 kts 242°
2026-05-08 17:51 34.31622 -82.89696 35094 ft 364 kts 242°
2026-05-08 17:52 34.28753 -82.94688 35090 ft 364 kts 242°
2026-05-08 17:53 34.24405 -83.02240 35087 ft 365 kts 242°
2026-05-08 17:53 34.21495 -83.07288 35087 ft 366 kts 242°
2026-05-08 17:54 34.18577 -83.12340 35089 ft 367 kts 242°
2026-05-08 17:54 34.15655 -83.17393 35094 ft 367 kts 242°
2026-05-08 17:55 34.12724 -83.22455 35097 ft 368 kts 242°
2026-05-08 17:55 34.09786 -83.27520 35096 ft 365 kts 241°
2026-05-08 17:56 34.06869 -83.32545 35099 ft 368 kts 241°
2026-05-08 17:56 34.03920 -83.37616 35100 ft 370 kts 241°
2026-05-08 17:57 34.00959 -83.42701 35094 ft 371 kts 241°
2026-05-08 17:57 33.98007 -83.47763 35082 ft 372 kts 241°
2026-05-08 17:58 33.95032 -83.52857 35105 ft 372 kts 241°
2026-05-08 17:58 33.92053 -83.57952 35104 ft 372 kts 241°
2026-05-08 17:59 33.89068 -83.63048 35106 ft 373 kts 241°
2026-05-08 17:59 33.86075 -83.68153 35105 ft 373 kts 241°
2026-05-08 18:00 33.83044 -83.73235 35100 ft 374 kts 240°
2026-05-08 18:00 33.78477 -83.80832 35082 ft 374 kts 240°
2026-05-08 18:01 33.75424 -83.85902 35078 ft 375 kts 240°
2026-05-08 18:01 33.72383 -83.90951 35077 ft 376 kts 240°
2026-05-08 18:02 33.69811 -83.95215 35063 ft 376 kts 240°
2026-05-08 18:02 33.66232 -84.01141 35061 ft 377 kts 240°
2026-05-08 18:03 33.63163 -84.06213 35065 ft 378 kts 240°
2026-05-08 18:03 33.60052 -84.11350 35077 ft 378 kts 240°
2026-05-08 18:04 33.56958 -84.16450 35098 ft 378 kts 240°
2026-05-08 18:04 33.53854 -84.21560 35110 ft 379 kts 239°
2026-05-08 18:05 33.50756 -84.26653 35104 ft 381 kts 239°
2026-05-08 18:05 33.47631 -84.31783 35107 ft 381 kts 239°
2026-05-08 18:06 33.44503 -84.36911 35112 ft 381 kts 239°
2026-05-08 18:06 33.41370 -84.42041 35110 ft 382 kts 239°
2026-05-08 18:07 33.38226 -84.47179 35074 ft 383 kts 239°
2026-05-08 18:07 33.35073 -84.52328 35076 ft 384 kts 239°
2026-05-08 18:08 33.31900 -84.57500 35075 ft 386 kts 239°
2026-05-08 18:08 33.28717 -84.62680 35073 ft 387 kts 239°
2026-05-08 18:09 33.25529 -84.67863 35075 ft 387 kts 239°
2026-05-08 18:09 33.22360 -84.73008 35072 ft 387 kts 239°
2026-05-08 18:10 33.19164 -84.78189 35077 ft 387 kts 238°
2026-05-08 18:10 33.15961 -84.83374 35074 ft 388 kts 238°
2026-05-08 18:11 33.12751 -84.88564 35076 ft 389 kts 238°
2026-05-08 18:11 33.09535 -84.93755 35080 ft 389 kts 238°
2026-05-08 18:12 33.06306 -84.98959 35071 ft 390 kts 238°
2026-05-08 18:12 33.03094 -85.04130 35067 ft 391 kts 238°
2026-05-08 18:13 32.99852 -85.09343 35078 ft 392 kts 238°
2026-05-08 18:13 32.96600 -85.14562 35074 ft 392 kts 238°
2026-05-08 18:14 32.93345 -85.19780 35070 ft 392 kts 238°
2026-05-08 18:14 32.90088 -85.24993 35070 ft 393 kts 237°
2026-05-08 18:15 32.86824 -85.30211 35068 ft 393 kts 237°
2026-05-08 18:15 32.83556 -85.35427 35075 ft 393 kts 237°
2026-05-08 18:16 32.80833 -85.39769 35082 ft 393 kts 237°
2026-05-08 18:16 32.77023 -85.45835 35084 ft 393 kts 237°
2026-05-08 18:17 32.74302 -85.50161 35087 ft 393 kts 237°
2026-05-08 18:17 32.71016 -85.55378 35086 ft 394 kts 237°
2026-05-08 18:18 32.67726 -85.60594 35082 ft 394 kts 237°
2026-05-08 18:18 32.64434 -85.65807 35083 ft 395 kts 237°
2026-05-08 18:19 32.61132 -85.71029 35073 ft 396 kts 237°
2026-05-08 18:19 32.57828 -85.76244 34897 ft 393 kts 237°
2026-05-08 18:20 32.56183 -85.78840 34486 ft 394 kts 236°
2026-05-08 18:20 32.54535 -85.81437 34069 ft 394 kts 236°
2026-05-08 18:20 32.52889 -85.84029 33590 ft 392 kts 236°
2026-05-08 18:20 32.51274 -85.86569 33124 ft 389 kts 236°
2026-05-08 18:21 32.49654 -85.89117 32667 ft 386 kts 237°
2026-05-08 18:21 32.48044 -85.91649 32213 ft 383 kts 237°
2026-05-08 18:21 32.46443 -85.94165 31759 ft 381 kts 237°
2026-05-08 18:21 32.44852 -85.96662 31331 ft 379 kts 237°
2026-05-08 18:22 32.43267 -85.99148 30897 ft 377 kts 237°
2026-05-08 18:22 32.41692 -86.01617 30469 ft 375 kts 237°
2026-05-08 18:22 32.40124 -86.04075 30068 ft 372 kts 237°
2026-05-08 18:22 32.38581 -86.06489 30047 ft 365 kts 237°
2026-05-08 18:23 32.35482 -86.11345 30058 ft 373 kts 237°
2026-05-08 18:23 32.32346 -86.16237 30054 ft 373 kts 237°
2026-05-08 18:24 32.29205 -86.21142 30069 ft 377 kts 237°
2026-05-08 18:24 32.25999 -86.26138 30069 ft 389 kts 236°
2026-05-08 18:25 32.22098 -86.30721 30086 ft 411 kts 220°
2026-05-08 18:25 32.16736 -86.33443 29489 ft 433 kts 200°
2026-05-08 18:26 32.13772 -86.34199 28944 ft 435 kts 200°
2026-05-08 18:26 32.10825 -86.34945 28417 ft 432 kts 200°
2026-05-08 18:26 32.07895 -86.35716 27894 ft 430 kts 200°
2026-05-08 18:26 32.04979 -86.36487 27373 ft 428 kts 200°
2026-05-08 18:27 32.02076 -86.37240 26863 ft 425 kts 199°
2026-05-08 18:27 32.00164 -86.37732 26535 ft 424 kts 199°
2026-05-08 18:27 31.96364 -86.38720 25910 ft 421 kts 199°
2026-05-08 18:27 31.93481 -86.39476 25490 ft 432 kts 199°
2026-05-08 18:28 31.90491 -86.40261 25069 ft 445 kts 198°
2026-05-08 18:28 31.87461 -86.41038 24659 ft 447 kts 198°
2026-05-08 18:28 31.84420 -86.41817 24254 ft 448 kts 198°
2026-05-08 18:28 31.81383 -86.42605 24002 ft 444 kts 198°
2026-05-08 18:29 31.78373 -86.43390 24030 ft 445 kts 198°
2026-05-08 18:29 31.75328 -86.44182 24028 ft 451 kts 198°
2026-05-08 18:29 31.72255 -86.44974 24022 ft 453 kts 198°
2026-05-08 18:29 31.69171 -86.45766 24017 ft 454 kts 198°
2026-05-08 18:30 31.66081 -86.46565 24011 ft 455 kts 198°
2026-05-08 18:30 31.62982 -86.47367 24006 ft 456 kts 198°
2026-05-08 18:30 31.59884 -86.48165 23997 ft 456 kts 198°
2026-05-08 18:30 31.56823 -86.48952 23994 ft 456 kts 198°
2026-05-08 18:31 31.53722 -86.49751 23989 ft 456 kts 198°
2026-05-08 18:31 31.50618 -86.50551 23986 ft 456 kts 198°
2026-05-08 18:31 31.47515 -86.51349 23992 ft 457 kts 198°
2026-05-08 18:31 31.44411 -86.52145 23998 ft 457 kts 198°
2026-05-08 18:32 31.41309 -86.52942 24004 ft 457 kts 198°
2026-05-08 18:32 31.38202 -86.53740 24015 ft 457 kts 198°
2026-05-08 18:32 31.35092 -86.54538 24018 ft 457 kts 198°
2026-05-08 18:32 31.31982 -86.55334 24020 ft 457 kts 198°
2026-05-08 18:33 31.28922 -86.56112 23866 ft 439 kts 198°
2026-05-08 18:33 31.25908 -86.56886 23457 ft 450 kts 198°
2026-05-08 18:33 31.22862 -86.57674 22982 ft 443 kts 198°
2026-05-08 18:33 31.19860 -86.58436 22512 ft 442 kts 198°
2026-05-08 18:34 31.16866 -86.59197 22053 ft 437 kts 198°
2026-05-08 18:34 31.13910 -86.59952 21602 ft 433 kts 198°
2026-05-08 18:34 31.10975 -86.60704 21221 ft 429 kts 198°
2026-05-08 18:34 31.08066 -86.61445 20906 ft 427 kts 198°
2026-05-08 18:35 31.05209 -86.62172 20589 ft 424 kts 198°
2026-05-08 18:35 31.02297 -86.62914 20229 ft 421 kts 198°
2026-05-08 18:35 30.99496 -86.63627 19878 ft 418 kts 198°
2026-05-08 18:35 30.96667 -86.64346 19534 ft 413 kts 198°
2026-05-08 18:36 30.93871 -86.65056 19188 ft 410 kts 198°
2026-05-08 18:36 30.91095 -86.65761 18852 ft 405 kts 198°
2026-05-08 18:36 30.88346 -86.66460 18510 ft 403 kts 198°
2026-05-08 18:36 30.85619 -86.67152 18145 ft 399 kts 198°
2026-05-08 18:37 30.82911 -86.67841 17752 ft 399 kts 198°
2026-05-08 18:37 30.80201 -86.68527 17361 ft 397 kts 198°
2026-05-08 18:37 30.77499 -86.69207 16877 ft 396 kts 197°
2026-05-08 18:37 30.74812 -86.69879 16382 ft 395 kts 197°
2026-05-08 18:38 30.72134 -86.70544 15902 ft 393 kts 196°
2026-05-08 18:38 30.69459 -86.71203 15384 ft 392 kts 196°
2026-05-08 18:38 30.66800 -86.71855 14911 ft 391 kts 195°
2026-05-08 18:38 30.64175 -86.72495 14451 ft 390 kts 195°
2026-05-08 18:39 30.61520 -86.73138 13987 ft 389 kts 195°
2026-05-08 18:39 30.58871 -86.73777 13490 ft 388 kts 194°
2026-05-08 18:39 30.56238 -86.74408 12982 ft 386 kts 194°
2026-05-08 18:39 30.53543 -86.75054 12480 ft 403 kts 194°
2026-05-08 18:40 30.50870 -86.75690 11985 ft 381 kts 193°
2026-05-08 18:40 30.48324 -86.76275 11499 ft 365 kts 191°
2026-05-08 18:40 30.45813 -86.76249 11029 ft 357 kts 174°
2026-05-08 18:40 30.43422 -86.75682 10557 ft 345 kts 168°
2026-05-08 18:41 30.41259 -86.74576 10073 ft 340 kts 145°
2026-05-08 18:41 30.39690 -86.72560 9528 ft 336 kts 126°
2026-05-08 18:41 30.38505 -86.70274 8943 ft 325 kts 121°
2026-05-08 18:41 30.37456 -86.68012 8374 ft 313 kts 120°
2026-05-08 18:42 30.36467 -86.65809 7813 ft 304 kts 119°
2026-05-08 18:42 30.35510 -86.63657 7271 ft 299 kts 119°
2026-05-08 18:42 30.34554 -86.61510 6728 ft 299 kts 119°
2026-05-08 18:42 30.33611 -86.59400 6193 ft 300 kts 119°
2026-05-08 18:43 30.32648 -86.57256 5638 ft 300 kts 119°
2026-05-08 18:43 30.31684 -86.55125 5082 ft 298 kts 119°
2026-05-08 18:43 30.30717 -86.53014 4521 ft 296 kts 119°
2026-05-08 18:43 30.29751 -86.50917 3946 ft 293 kts 119°
2026-05-08 18:44 30.28790 -86.48848 3409 ft 291 kts 119°
2026-05-08 18:44 30.27829 -86.46787 3004 ft 286 kts 119°
2026-05-08 18:44 30.26917 -86.44834 3009 ft 266 kts 119°
2026-05-08 18:44 30.26065 -86.43020 3006 ft 255 kts 119°
2026-05-08 18:45 30.25233 -86.41243 3006 ft 248 kts 118°
2026-05-08 18:45 30.24849 -86.39323 3017 ft 249 kts 84°
2026-05-08 18:45 30.25536 -86.37533 3025 ft 246 kts 46°
2026-05-08 18:45 30.26906 -86.36398 3022 ft 242 kts 30°
2026-05-08 18:46 30.28340 -86.35398 3026 ft 240 kts 31°
2026-05-08 18:46 30.29762 -86.34399 3027 ft 239 kts 29°
2026-05-08 18:46 30.31216 -86.33480 3025 ft 238 kts 28°
2026-05-08 18:46 30.32666 -86.32564 3025 ft 238 kts 28°
2026-05-08 18:47 30.34100 -86.31638 3023 ft 229 kts 25°
2026-05-08 18:47 30.35571 -86.31278 3014 ft 209 kts 354°
2026-05-08 18:47 30.36904 -86.31796 3008 ft 201 kts 327°
2026-05-08 18:47 30.37829 -86.32917 3007 ft 186 kts 301°
2026-05-08 18:48 30.38481 -86.34181 2860 ft 185 kts 300°
2026-05-08 18:48 30.39126 -86.35434 2676 ft 179 kts 300°
2026-05-08 18:48 30.39751 -86.36692 2492 ft 179 kts 300°
2026-05-08 18:48 30.40367 -86.37940 2307 ft 178 kts 300°
2026-05-08 18:49 30.40973 -86.39173 2112 ft 175 kts 300°
2026-05-08 18:49 30.41579 -86.40401 1923 ft 175 kts 301°
2026-05-08 18:49 30.42182 -86.41622 1737 ft 174 kts 301°
2026-05-08 18:49 30.42762 -86.42808 1548 ft 164 kts 301°
2026-05-08 18:50 30.43309 -86.43923 1373 ft 157 kts 301°
2026-05-08 18:50 30.43849 -86.45021 1201 ft 156 kts 301°
2026-05-08 18:50 30.44380 -86.46106 1037 ft 154 kts 302°
2026-05-08 18:50 30.44911 -86.47185 853 ft 154 kts 302°
2026-05-08 18:51 30.45438 -86.48249 685 ft 155 kts 300°
2026-05-08 18:51 30.45980 -86.49353 518 ft 157 kts 300°
2026-05-08 18:51 30.46522 -86.50460 352 ft 159 kts 299°
2026-05-08 18:51 30.47076 -86.51568 174 ft 158 kts 300°
2026-05-08 18:52 30.47615 -86.52664 64 ft 151 kts 298°
2026-05-08 18:52 30.48007 -86.53454 70 ft 64 kts 301°
2026-05-08 18:52 30.48185 -86.53824 82 ft 47 kts 300°
2026-05-08 18:52 30.48335 -86.54127 84 ft 39 kts 298°
2026-05-08 18:53 30.48463 -86.54384 86 ft 36 kts 300°
2026-05-08 18:53 30.48584 -86.54626 88 ft 33 kts 303°
2026-05-08 18:53 30.48697 -86.54847 91 ft 32 kts 298°
2026-05-08 18:53 30.48795 -86.55066 93 ft 30 kts 301°
2026-05-08 18:54 30.48935 -86.55163 93 ft 21 kts 24°
2026-05-08 18:54 30.49046 -86.55087 95 ft 17 kts 29°
2026-05-08 18:54 30.49140 -86.55027 94 ft 14 kts 30°
2026-05-08 18:54 30.49219 -86.54990 94 ft 11 kts
2026-05-08 18:55 30.49329 -86.55017 92 ft 6 kts 291°
2026-05-08 18:55 30.49344 -86.55049 94 ft 3 kts 335°
2026-05-08 18:55 30.49360 -86.55043 93 ft 4 kts 25°
2026-05-08 18:56 30.49380 -86.55019 92 ft 3 kts 46°
2026-05-08 18:56 30.49390 -86.55008 93 ft 0 kts 45°
2026-05-08 18:56 30.49392 -86.55005 93 ft 0 kts 45°